Location: Doverdale
(52.2833°N, 2.2000°W)
Time: 02:27:02
(UTC+00:00)

H-2A R/B - Pass Details

Date: 29 October 2020
Orbit: 733 x 837 km, 98.2° (Epoch: 27 November)

Event Time Altitude Azimuth Distance (km) Brightness Sun altitude
Rises 19:37:35 0° 184° (S) 3,360 5.2 -26.9°
Reaches altitude 10° 19:40:02 10° 191° (S) 2,438 4.6 -27.2°
Maximum altitude 19:45:13 44° 263° (W) 1,145 3.2 -28.0°
Drops below altitude 10° 19:50:26 10° 335° (NNW) 2,461 5.1 -28.8°
Sets 19:52:56 0° 342° (NNW) 3,395 5.8 -29.1°
